Location: Makanda
(37.6176°N, 89.2090°W)
Time: 02:27:26
(UTC+00:00)

Cosmos 1455 Rocket - Pass Details

Date: 23 September 2019
Orbit: 605 x 630 km, 82.5° (Epoch: 16 October)

Event Time Altitude Azimuth Distance (km) Brightness Sun altitude
Rises 00:30:33 0° 151° (SSE) 2,888 6.1 -8.0°
Reaches altitude 10° 00:33:14 10° 135° (SE) 1,991 5.2 -8.6°
Maximum altitude 00:36:28 20° 88° (E) 1,444 4.3 -9.2°
Drops below altitude 10° 00:39:43 10° 40° (NE) 2,010 5.4 -9.9°
Sets 00:42:25 0° 24° (NNE) 2,924 6.4 -10.4°
